Theta_e
312 313 315 318 320 322 330 330 333 336 329 323 322 326 323 322 325 323 324 325 327 325 325 327 327 326 328 337 338 337 337 338 342 341 343 342 339 340 340 339 338 336 336 336 337 338 332 323 320 319 318 319 325 330 330 330 331 332 331 331 331 332 333 332 333 334 333 332 331 331 331 331 333 334 333 333 333 333 331 330 330 331 331 331 331 331 331 331 330 330 329 330 330 330 330 328 331
312 313 316 322 322 323 336 332 329 331 324 320 320 323 323 323 324 321 324 325 326 325 328 329 328 327 327 334 334 341 342 339 341 341 340 340 340 340 340 339 338 336 335 336 337 337 329 322 320 318 318 320 324 327 329 331 331 331 333 334 335 334 334 333 334 334 332 331 330 330 330 332 334 333 333 332 333 332 331 330 330 330 331 331 331 331 331 331 330 330 329 329 329 329 328 328 330
313 314 317 326 329 325 332 330 323 323 319 319 320 322 325 326 324 323 325 325 327 329 330 329 330 327 325 332 336 343 343 338 339 339 339 340 340 340 340 339 338 336 335 336 337 336 329 323 322 318 317 319 323 328 331 332 331 332 333 335 334 334 334 333 334 334 332 331 330 330 331 333 333 333 332 331 332 332 331 330 329 329 330 330 331 331 331 330 330 330 329 328 329 328 328 329 330
314 317 320 327 335 330 329 328 327 324 318 320 318 319 326 327 325 324 325 327 330 330 327 328 331 326 325 334 337 341 340 338 339 339 339 340 340 340 340 340 339 336 335 335 336 336 330 325 322 318 318 319 324 330 332 332 332 332 333 334 333 334 334 333 334 333 332 332 331 330 331 333 332 332 332 332 332 332 331 329 329 329 329 329 330 330 329 329 329 330 328 328 328 327 329 331 330
316 321 321 324 334 333 327 326 331 325 319 325 319 320 327 326 327 325 327 328 330 330 326 328 329 324 328 334 335 340 339 339 339 339 339 339 340 340 341 340 338 335 335 336 336 336 331 326 323 319 318 319 324 330 332 332 332 332 333 333 332 333 333 334 334 333 333 332 331 329 328 331 331 331 331 331 332 331 329 329 330 330 330 330 329 329 329 329 329 330 329 328 328 328 329 330 330
318 323 323 324 328 327 326 323 327 323 321 330 322 322 327 325 327 326 327 326 327 329 327 327 327 327 334 335 335 338 338 338 339 338 339 339 341 341 340 339 338 337 338 338 336 335 332 327 324 319 318 318 320 327 332 332 332 332 333 332 332 334 334 335 335 334 333 332 330 328 328 328 329 329 329 331 331 330 329 330 331 332 332 331 331 329 329 330 330 330 329 329 329 329 328 329 329
319 327 329 326 328 324 327 324 326 327 320 325 323 323 326 323 326 325 326 325 324 327 327 327 326 331 333 334 338 338 336 337 339 339 340 339 340 340 340 338 340 340 340 340 337 336 333 329 326 321 319 318 318 324 329 331 332 332 333 333 332 333 334 335 334 332 332 331 330 329 329 328 329 330 329 331 331 330 329 329 331 331 331 331 330 329 328 329 329 328 328 328 329 328 327 328 329
319 329 331 326 332 327 326 326 329 331 319 319 322 323 324 323 325 324 326 325 324 325 326 326 325 329 329 336 342 339 337 338 338 339 339 339 340 339 339 338 341 341 341 340 337 336 334 332 329 322 320 319 318 321 326 329 332 332 333 333 332 332 334 334 332 332 331 330 329 329 328 328 329 329 330 330 330 330 329 329 330 330 330 329 329 329 329 329 328 327 327 328 328 328 327 328 328
320 328 331 325 332 329 324 326 327 326 320 320 320 322 324 323 324 323 324 323 323 325 326 326 324 327 330 340 340 336 338 339 338 338 339 338 339 338 338 339 340 341 341 340 337 336 335 334 331 323 321 320 319 320 324 328 331 333 333 333 333 333 334 333 331 331 331 330 329 329 328 328 328 328 328 329 329 329 329 329 329 329 329 329 329 329 329 329 329 328 328 328 327 327 327 328 328
326 326 330 328 328 325 323 325 324 322 320 321 320 322 323 322 322 321 322 321 323 325 325 324 324 329 335 340 340 337 337 338 338 338 338 338 338 338 338 339 340 340 341 340 337 336 336 335 332 325 322 321 320 319 320 325 329 332 333 333 333 333 333 331 330 330 329 329 329 329 328 328 327 327 327 328 328 328 329 329 328 328 328 328 328 328 329 329 328 328 328 327 325 325 326 327 327
336 327 326 327 324 321 323 323 321 322 320 319 320 320 321 322 321 320 321 320 324 326 324 322 320 330 338 340 340 337 336 337 338 338 338 337 337 337 337 339 339 339 340 340 337 336 336 335 333 328 324 322 321 321 319 320 325 329 331 331 332 331 331 329 327 326 324 326 329 329 328 327 327 328 328 328 328 329 329 328 328 327 327 327 327 327 327 328 328 327 327 326 325 324 326 326 326
338 331 324 326 327 325 327 325 320 321 319 320 320 320 322 322 321 319 321 322 325 325 324 323 317 327 337 340 339 335 336 337 337 338 337 337 337 336 337 338 339 339 339 340 337 336 336 336 335 332 328 324 322 322 321 319 320 323 325 327 328 328 328 327 326 325 322 323 328 328 328 328 327 328 328 329 329 329 329 328 328 327 327 326 326 326 326 327 327 326 326 326 325 324 325 326 326
335 332 322 325 332 330 328 324 322 322 319 321 321 320 322 322 322 319 321 322 325 324 324 324 319 328 337 338 339 335 336 336 337 338 336 337 336 336 337 338 339 339 339 339 337 335 336 336 335 334 331 327 324 322 322 321 320 319 319 321 323 323 323 324 325 325 321 321 327 328 328 328 327 327 327 328 329 328 328 328 327 327 325 324 325 326 326 326 326 326 326 325 324 324 325 325 326
330 331 322 325 332 325 325 322 321 322 319 321 320 320 321 321 322 318 320 321 321 322 322 320 321 334 339 338 339 336 336 336 337 337 336 336 336 336 337 338 339 339 339 339 338 336 336 336 335 335 333 330 327 324 323 322 321 320 319 319 320 320 320 321 322 322 320 320 325 328 327 328 326 326 327 327 328 327 327 327 326 325 323 321 322 324 325 325 325 326 325 324 324 324 325 325 326
326 333 326 328 330 323 328 325 322 324 320 321 320 320 322 319 320 318 320 321 320 320 318 318 319 328 335 340 344 336 335 336 336 336 336 336 336 337 337 338 338 338 339 339 339 336 335 336 335 335 334 333 330 327 325 323 323 322 321 321 320 320 319 320 320 320 319 318 322 325 326 327 327 326 326 326 326 326 327 327 325 324 323 320 319 322 325 325 325 325 324 324 323 323 323 324 325
327 331 326 327 330 326 330 326 323 325 321 322 319 320 322 318 320 319 317 321 320 317 318 319 317 324 332 340 342 335 336 336 335 335 335 336 336 337 337 338 338 338 338 338 339 337 335 336 335 335 334 334 333 330 327 325 324 323 323 322 322 321 320 319 319 318 316 315 318 321 324 326 326 326 325 326 326 326 327 326 325 324 323 320 318 319 322 323 324 323 323 323 323 323 322 322 323
326 325 325 327 331 327 329 326 324 326 322 321 319 320 322 318 319 317 315 319 318 319 325 325 323 334 340 339 336 335 337 335 335 336 335 336 337 337 337 338 338 338 338 338 339 339 337 336 336 335 335 334 334 333 330 327 325 324 324 323 323 323 322 321 320 319 315 311 314 318 321 324 325 325 325 325 326 326 326 326 325 324 322 320 319 319 319 320 321 320 320 321 321 322 321 321 321
324 327 327 325 331 330 331 330 326 325 321 320 320 320 322 319 318 317 316 318 317 320 326 329 332 337 338 337 335 336 336 335 336 336 335 336 337 337 338 338 337 337 338 338 339 340 339 338 338 336 335 335 335 334 333 330 327 325 325 324 324 323 323 323 321 321 316 310 312 316 318 320 321 323 324 325 325 325 325 324 323 322 321 320 319 319 318 317 317 317 318 319 321 322 322 321 320
324 329 326 326 334 331 327 325 323 321 319 320 320 320 321 320 318 317 317 317 317 319 321 329 338 338 336 336 336 336 336 336 336 335 335 336 336 337 337 338 338 337 336 336 338 340 340 339 339 338 336 336 337 337 336 333 329 327 326 325 324 324 323 323 323 322 319 313 314 319 321 322 322 321 322 323 324 324 324 323 323 322 321 320 319 319 317 317 317 317 318 320 322 323 323 323 322
324 323 323 332 333 324 320 318 320 319 319 321 319 319 319 319 318 316 318 318 317 318 321 328 336 338 339 336 335 336 335 336 336 335 335 334 336 336 336 337 338 338 336 335 337 338 340 339 339 339 337 337 338 338 338 336 333 330 328 326 325 325 324 324 323 323 321 318 322 325 327 328 327 325 325 323 322 323 323 323 323 323 322 321 320 319 318 317 318 317 317 320 322 322 323 323 322
322 319 323 330 323 319 319 316 319 318 318 320 319 319 318 318 317 317 319 318 317 317 319 325 333 336 338 335 334 335 335 335 335 335 334 334 335 335 336 337 337 338 335 334 336 337 338 340 339 339 339 338 339 338 338 338 336 333 331 330 329 328 327 325 324 323 322 322 327 329 328 329 329 328 329 327 324 323 323 322 322 322 321 321 320 320 319 317 318 317 317 319 321 321 322 323 323
320 319 322 323 319 319 319 316 318 317 318 319 319 319 318 317 316 317 318 318 319 316 316 319 326 333 336 335 334 334 334 334 334 335 334 334 334 335 335 336 336 337 336 334 335 336 337 339 339 339 339 339 339 339 338 338 337 336 334 334 333 333 331 328 325 325 324 323 328 330 328 329 329 328 328 329 326 322 323 323 322 321 322 322 321 322 321 319 319 317 317 318 320 320 320 322 323
319 320 320 319 319 319 317 317 319 318 319 319 320 318 317 317 317 317 317 318 318 316 317 317 321 331 335 333 333 333 334 333 334 334 334 334 334 334 335 336 336 336 335 333 334 336 335 337 339 339 340 339 340 339 339 338 338 336 335 335 335 335 334 331 328 327 327 325 326 329 329 328 328 327 327 328 325 319 322 325 325 323 324 325 323 323 322 322 321 318 317 317 317 319 319 320 321
318 320 319 317 318 318 316 317 318 319 319 319 318 317 317 318 318 316 316 317 316 316 320 317 319 328 333 332 332 332 333 333 334 334 334 334 334 334 335 335 335 335 335 333 333 334 334 335 337 338 339 339 339 339 339 338 337 336 336 336 336 335 335 333 331 329 329 328 326 328 330 329 329 328 326 327 324 318 324 328 327 325 326 326 325 324 323 323 322 320 319 317 317 318 318 317 317
318 319 318 317 316 315 316 316 318 318 318 317 318 318 317 317 317 316 316 317 316 318 323 323 322 328 332 332 332 331 331 333 333 334 334 334 334 334 334 334 335 335 334 334 333 333 334 334 335 337 338 339 339 339 339 338 337 337 337 337 337 336 335 334 332 331 331 330 328 328 329 330 329 327 326 326 325 322 326 329 328 327 327 326 326 326 325 324 324 322 320 319 319 318 317 317 316
318 318 318 318 315 314 315 315 316 317 317 317 318 318 316 315 315 317 317 316 315 320 327 329 328 329 332 332 331 330 330 332 333 334 334 334 335 335 334 335 334 334 334 334 334 333 333 333 334 336 337 338 338 338 338 338 337 337 338 337 337 336 335 335 334 332 331 331 330 329 329 329 329 328 326 327 326 326 327 329 328 328 327 327 327 326 325 324 324 324 322 321 320 319 318 318 318
317 319 318 317 315 315 315 315 315 316 317 316 318 318 315 315 315 317 318 315 316 321 325 329 330 330 331 330 330 330 330 332 333 334 334 334 335 335 335 335 334 335 334 334 334 334 333 333 334 335 336 337 337 338 338 338 338 337 337 337 337 336 336 335 334 333 332 332 331 330 329 328 329 329 328 328 328 327 327 328 328 328 328 327 327 326 326 325 325 324 322 322 322 321 320 319 319
317 318 317 316 315 315 315 315 315 315 315 316 318 317 315 316 315 319 319 314 318 323 322 324 329 330 330 330 330 330 329 331 333 333 334 334 335 335 336 336 335 335 335 334 334 334 334 333 334 334 335 336 336 336 337 338 337 337 336 337 337 337 336 336 335 335 334 333 332 331 330 329 328 328 328 328 328 328 327 327 327 327 327 327 327 327 326 326 325 324 323 323 322 321 321 320 320
317 317 316 316 315 315 315 315 315 315 315 316 316 316 316 317 317 319 317 313 317 322 322 322 324 324 326 328 329 329 328 330 331 332 334 334 335 335 335 336 336 335 335 335 335 334 334 334 333 334 335 336 336 335 336 337 337 336 336 335 336 336 336 336 335 335 335 334 333 332 330 330 329 328 328 328 328 328 328 328 327 327 327 327 326 326 326 326 325 324 323 323 322 322 321 321 321
316 316 316 317 314 316 317 315 316 316 315 315 314 315 319 319 317 317 315 313 314 318 321 321 321 320 321 324 327 328 326 327 330 331 333 334 334 335 335 336 336 336 336 335 336 335 335 335 334 334 334 335 335 335 336 336 336 336 336 335 335 335 335 335 335 335 334 334 333 332 331 331 329 328 328 328 328 329 328 328 328 327 327 327 326 326 326 326 325 324 323 323 323 322 322 321 321
316 314 316 319 317 320 319 315 316 316 315 315 313 315 320 321 318 316 315 314 314 316 318 320 320 318 319 321 325 327 326 326 329 331 332 334 334 335 335 336 336 336 336 336 336 336 335 335 334 334 334 334 335 335 335 335 335 336 336 335 335 335 335 335 335 334 334 334 333 333 332 332 331 329 329 328 328 329 328 328 328 328 327 327 327 326 326 325 325 324 324 323 323 323 322 321 320
314 315 318 319 317 323 321 314 316 316 315 314 313 315 318 319 318 315 314 315 315 316 316 317 320 318 317 320 324 327 326 324 328 330 331 333 334 335 335 336 335 336 336 337 336 336 336 335 335 335 334 334 334 335 335 335 335 336 336 336 335 334 335 335 334 334 334 334 334 333 333 333 332 331 330 329 328 329 329 329 328 328 327 327 327 327 326 326 326 325 324 323 323 323 322 321 321
315 316 322 321 317 320 319 315 316 316 315 313 313 316 317 317 316 313 313 314 314 316 316 316 319 318 318 320 323 327 328 327 328 329 330 332 333 334 335 336 336 335 336 337 337 336 336 336 335 335 335 334 334 334 335 336 336 336 336 336 336 335 335 335 334 334 334 334 334 334 334 333 332 332 331 330 329 328 329 329 329 328 328 328 327 327 327 327 326 326 325 324 323 322 322 321 322
316 314 318 322 318 317 318 318 317 316 315 314 313 315 317 316 314 313 314 315 315 315 316 315 316 317 318 320 324 326 328 330 329 327 330 332 332 333 334 335 336 336 336 336 336 336 336 336 336 335 335 335 334 333 334 335 336 335 335 336 336 336 335 335 335 334 334 334 334 334 334 334 333 332 331 330 330 329 328 328 329 328 328 328 328 327 327 327 327 326 326 326 324 323 322 322 322
321 316 314 317 317 315 318 318 317 316 315 315 314 314 316 317 314 315 315 314 315 316 316 315 314 315 316 320 324 324 325 327 325 325 329 331 332 333 333 333 334 336 336 336 336 336 336 336 335 335 335 335 334 334 333 333 334 334 334 335 335 335 335 334 334 334 334 334 334 334 334 334 334 333 332 331 330 329 329 328 328 327 327 328 328 328 328 327 327 327 327 326 325 324 323 322 322
321 319 315 315 316 315 317 319 317 315 314 316 316 313 314 315 314 316 316 315 315 315 315 315 316 316 315 317 320 321 322 322 320 323 328 329 331 332 332 333 332 334 336 336 336 335 335 335 335 335 335 335 334 334 334 334 334 334 335 335 335 335 335 333 332 333 334 334 333 333 333 334 334 333 332 332 331 330 330 329 329 328 328 328 328 328 328 327 326 327 327 327 326 324 323 322 321
315 316 315 315 317 315 317 319 316 314 315 316 316 316 315 314 315 315 315 316 316 316 315 315 316 317 317 316 317 318 319 317 315 319 325 327 329 331 331 332 332 332 334 335 335 334 334 335 335 335 334 334 334 334 335 334 333 334 335 335 334 334 334 333 332 332 332 333 333 333 333 333 333 333 332 332 332 331 330 330 329 329 329 329 328 328 328 327 326 327 327 327 325 324 324 323 322
313 317 317 314 317 318 315 316 315 313 314 316 317 315 315 315 314 314 314 315 316 316 315 315 315 317 318 318 318 317 315 317 316 316 320 324 327 329 330 332 331 331 332 332 333 333 333 334 335 336 335 334 335 334 334 334 334 332 333 334 334 333 332 332 332 332 331 332 332 332 333 333 332 333 332 332 332 331 330 329 329 329 329 329 329 329 328 328 327 327 327 326 325 324 324 323 322
315 320 318 315 317 317 315 315 315 313 314 317 318 315 314 315 314 312 313 315 315 314 314 315 315 316 317 318 320 319 317 323 326 319 317 321 325 328 329 331 331 331 331 331 331 332 332 333 334 335 335 335 334 334 333 333 333 332 330 331 331 332 332 331 331 331 331 331 330 331 332 332 332 331 332 332 332 332 331 330 329 329 330 330 330 330 329 329 328 328 327 327 326 325 324 324 323
317 319 318 319 319 316 315 315 314 313 313 315 317 316 315 314 314 315 314 314 314 313 314 314 315 316 317 317 319 320 319 325 330 324 318 318 322 327 328 329 331 330 331 331 331 332 332 332 333 334 335 335 334 333 333 332 333 332 331 330 329 331 331 331 331 331 331 330 330 330 331 331 330 331 332 332 332 332 331 331 330 330 330 330 331 330 329 329 328 328 327 327 326 325 325 325 323
319 320 319 321 320 318 317 316 315 313 313 315 314 314 318 316 314 315 314 314 313 314 315 314 316 316 316 318 318 318 320 323 329 327 321 317 319 325 327 328 330 331 331 332 331 332 333 333 333 334 334 334 334 333 332 332 333 333 332 331 331 331 331 330 330 330 330 330 330 330 330 330 330 331 332 332 332 332 332 332 331 330 330 331 330 329 329 328 329 328 327 328 326 325 325 325 323
317 321 321 320 321 322 319 318 318 315 315 317 312 313 326 329 319 315 313 313 312 313 315 315 315 316 316 317 317 319 321 322 325 325 319 315 316 320 324 326 328 329 330 331 332 332 332 334 334 334 335 334 334 333 333 333 333 333 333 332 331 330 330 330 330 330 330 331 331 330 330 330 330 331 331 331 331 331 331 331 330 330 330 330 329 329 328 328 327 327 326 327 327 327 326 324 323
314 319 322 323 326 326 323 320 320 319 316 316 313 313 324 327 321 321 317 315 315 312 314 315 313 315 317 317 318 323 325 324 324 321 316 313 314 315 317 321 324 327 328 328 330 331 332 333 333 334 334 334 334 333 333 333 333 333 332 332 331 330 330 330 330 330 330 330 329 329 329 329 328 328 328 328 329 329 329 329 329 329 329 330 330 330 329 328 327 326 326 327 327 326 325 323 323
317 322 326 327 326 326 327 322 320 322 318 318 321 316 317 319 320 322 319 316 316 314 314 317 315 316 319 319 321 324 326 326 324 322 319 313 310 312 313 316 320 323 325 325 326 328 329 330 331 332 333 333 333 332 332 333 333 332 332 331 330 330 330 329 329 329 329 328 328 328 327 327 326 325 326 326 328 328 328 329 329 329 328 328 329 329 329 328 327 326 327 327 327 326 325 324 324
321 324 327 328 326 329 332 325 321 320 316 321 328 318 315 324 328 326 319 314 316 318 318 317 318 319 319 319 321 322 326 328 328 327 322 312 309 312 313 313 315 316 317 320 322 324 326 327 328 330 331 331 331 331 331 331 332 332 331 331 330 330 329 329 328 327 327 327 326 326 326 325 325 325 325 326 327 327 327 327 327 328 328 328 328 328 327 327 326 326 326 326 326 325 325 325 324
321 324 327 330 332 332 328 327 326 319 315 325 331 320 315 323 331 325 315 314 318 320 320 318 317 318 317 319 321 324 327 328 329 326 317 311 312 313 313 313 313 312 312 313 315 319 323 324 326 327 329 330 330 330 330 330 330 330 330 330 330 329 328 327 326 326 325 325 325 325 324 324 325 325 325 325 325 325 325 325 325 325 326 326 326 326 325 325 324 324 324 324 324 324 324 324 323
321 325 328 326 330 333 331 333 329 317 321 334 334 324 314 317 328 325 315 318 321 318 318 319 322 322 320 324 327 328 329 327 327 322 313 311 313 312 311 312 312 312 312 311 311 314 319 322 324 326 327 328 329 329 330 329 329 329 329 329 329 328 327 326 325 325 325 324 324 324 324 324 324 323 323 322 322 321 321 321 322 322 323 323 323 323 323 323 322 322 322 322 322 322 322 322 322
323 328 326 319 324 335 335 331 322 317 328 333 326 321 315 316 326 325 318 320 319 317 318 321 329 329 324 326 326 327 329 330 329 325 318 314 312 312 313 312 313 313 312 311 311 312 315 318 322 325 326 327 328 328 328 328 328 328 328 328 327 326 326 325 324 324 324 324 324 323 323 322 321 320 320 320 319 318 318 317 317 319 320 320 320 319 319 319 319 319 319 320 320 320 320 320 320
323 324 320 315 320 326 325 324 323 323 327 322 315 317 318 318 320 319 318 318 316 316 320 326 332 329 325 325 325 324 327 330 329 326 324 319 312 311 313 313 313 314 313 312 311 311 313 315 319 323 324 325 326 326 326 327 327 327 326 326 326 325 325 324 324 324 323 323 322 322 321 319 317 318 318 318 318 318 317 316 315 315 315 315 315 315 315 316 316 315 316 316 316 317 317 317 318
319 318 316 319 323 318 316 322 322 322 323 317 311 315 319 319 318 318 317 315 314 316 322 331 331 328 329 327 325 326 324 327 329 326 327 322 312 309 312 313 314 313 313 313 311 311 313 314 317 320 322 323 323 324 325 325 325 325 324 324 324 324 323 323 323 322 322 321 321 321 320 319 318 318 318 318 318 317 317 316 315 315 314 313 313 313 313 313 313 313 313 313 313 314 314 315 315
318 320 318 319 324 323 321 323 322 321 321 316 311 315 322 320 316 318 317 314 316 320 325 330 326 324 328 326 325 327 324 324 328 327 326 319 310 310 313 313 313 313 313 314 312 312 313 316 318 319 320 321 322 323 323 324 323 323 323 323 323 323 322 322 322 321 321 320 320 320 319 318 318 317 317 317 317 317 316 316 315 315 314 314 313 313 312 312 312 312 312 312 312 311 312 312 313
319 322 319 317 323 331 329 325 328 326 320 317 314 319 326 320 313 316 315 314 315 317 320 322 321 321 322 323 324 325 324 324 325 326 325 317 310 312 314 314 315 315 314 315 315 314 315 317 318 319 320 321 321 322 323 323 322 322 322 322 321 321 321 321 321 321 320 320 319 319 318 317 317 317 316 316 316 316 315 315 314 314 313 313 313 312 312 311 311 311 311 310 309 309 309 309 309
319 319 322 322 321 329 326 317 318 318 316 321 318 317 323 318 314 318 315 313 314 313 314 316 319 320 319 321 324 324 325 325 324 324 322 315 311 312 314 315 316 316 317 317 317 317 317 318 319 319 320 320 321 322 322 321 321 321 321 320 319 319 320 320 320 319 319 319 319 319 318 317 316 315 315 314 314 313 313 312 312 311 311 311 312 312 312 311 310 309 308 308 307 307 307 307 307
319 318 321 320 316 322 325 317 315 313 315 323 318 315 321 318 319 324 317 313 315 314 315 314 315 318 320 322 324 324 325 324 322 322 318 312 309 311 313 314 315 316 317 318 318 319 318 318 319 319 319 320 320 320 320 319 319 318 318 318 318 319 319 319 318 318 318 317 317 316 315 314 312 312 311 310 310 310 310 309 309 309 309 309 310 310 310 310 309 308 307 307 307 306 306 306 307
317 319 319 320 318 320 322 317 319 317 315 322 321 317 319 318 321 325 317 317 321 316 315 314 314 317 320 323 325 323 323 322 320 320 318 311 307 309 311 312 313 315 315 316 317 319 319 318 318 318 318 319 318 318 318 317 317 317 317 317 318 318 318 317 316 315 314 313 312 312 311 310 310 309 308 308 308 308 307 307 307 307 306 306 306 306 306 306 306 305 305 305 305 304 303 303 303
316 317 315 318 320 322 322 317 321 324 319 322 323 317 321 324 324 322 316 319 323 317 315 314 312 315 318 322 325 322 322 322 320 319 318 311 305 307 310 310 312 312 312 313 315 317 317 317 317 318 317 317 318 318 318 317 317 317 317 316 316 315 315 314 313 312 311 310 309 309 309 308 307 307 307 307 306 306 305 305 304 303 302 301 301 301 301 301 301 300 300 300 299 299 298 297 297
316 317 314 315 315 317 321 319 323 328 322 322 320 318 330 334 323 319 315 314 317 317 318 316 313 313 316 320 322 321 320 320 318 318 316 310 305 307 309 309 310 311 311 311 312 314 314 314 315 315 316 315 315 316 316 315 315 314 313 312 312 311 311 311 310 309 309 308 308 307 307 306 306 306 305 305 304 303 301 300 299 298 297 297 297 296 296 296 295 295 295 295 295 294 294 294 293
315 315 315 316 315 316 318 318 321 323 320 324 320 317 333 337 321 318 315 312 315 315 315 317 314 313 314 317 319 320 320 318 316 316 314 308 305 306 307 308 308 309 309 309 310 310 311 311 312 312 312 313 313 312 312 311 311 310 310 310 310 309 309 309 308 307 307 306 306 305 305 305 304 303 301 300 299 298 297 297 296 295 295 294 294 294 293 293 293 293 293 293 293 292 292 292 292
Wind_Speed
11 10 8 6 8 11 8 2 2 3 2 0 2 1 1 2 4 5 6 5 3 2 1 4 4 4 4 6 9 8 5 2 2 3 2 5 19 25 20 20 21 21 22 19 18 16 14 13 13 13 13 14 16 17 18 18 16 14 13 13 13 13 13 14 17 18 18 18 18 18 18 18 17 18 19 18 18 18 20 20 19 19 19 19 19 19 19 19 20 19 19 19 18 18 19 21 21
11 11 7 6 8 5 3 2 2 3 4 1 3 2 3 2 5 6 6 5 3 2 3 6 6 7 8 9 8 6 7 6 1 3 4 15 22 22 22 22 21 22 22 20 19 17 15 14 13 12 12 13 15 18 19 17 15 15 13 12 13 13 14 16 17 17 18 18 18 18 17 18 17 17 18 18 17 17 19 19 18 18 18 18 18 19 18 19 19 19 18 18 18 17 18 20 21
11 10 7 7 5 1 1 2 2 1 3 2 3 3 1 6 6 6 8 7 6 5 5 6 6 5 7 6 4 5 3 4 4 4 8 20 19 21 26 22 21 22 21 20 18 17 15 14 13 12 12 14 16 18 18 16 16 16 14 11 11 13 16 17 17 17 17 17 17 17 17 17 16 17 18 17 17 17 19 19 18 17 17 18 18 18 18 18 18 18 17 17 17 18 18 19 22
10 8 7 7 4 1 3 2 2 2 1 3 2 3 2 8 8 8 8 8 6 6 4 4 4 2 6 8 4 5 4 2 5 5 7 16 19 25 27 20 21 22 21 20 18 17 15 14 13 13 13 15 18 18 16 15 15 14 13 11 12 14 16 18 17 17 17 17 17 17 17 16 16 17 17 17 17 17 18 18 18 17 17 17 17 17 17 18 18 17 17 17 17 18 18 19 22
7 5 5 4 3 1 2 1 1 3 1 3 3 2 4 8 9 8 6 6 5 6 4 3 2 2 6 5 3 4 3 4 6 6 8 17 24 27 24 20 22 22 19 17 18 17 15 14 13 13 13 15 17 18 16 14 14 14 13 11 12 14 17 18 17 16 16 16 16 16 16 16 16 16 17 16 16 16 17 17 17 17 17 16 16 17 17 17 17 17 16 17 17 17 18 20 22
6 6 4 2 1 0 2 0 1 1 4 4 5 3 6 7 8 9 6 5 4 5 4 3 3 3 5 2 3 3 2 5 7 8 14 22 27 25 22 21 22 21 18 16 17 16 15 14 13 13 13 14 15 16 16 15 14 14 13 10 12 14 17 18 16 16 15 15 15 15 15 15 15 15 16 15 15 16 16 16 16 16 16 16 16 16 16 16 16 15 15 15 15 16 18 19 21
7 6 3 2 2 1 2 2 2 2 3 3 7 7 7 7 8 9 7 5 4 4 4 3 6 7 3 1 3 5 1 8 10 13 20 25 26 24 22 22 24 22 18 16 17 16 16 14 13 13 13 13 13 15 16 16 14 14 13 10 12 14 16 17 15 15 15 15 15 15 15 15 15 15 16 15 16 16 16 16 15 15 15 15 15 15 14 14 14 14 14 14 14 14 17 19 20
6 3 1 3 2 2 2 2 3 3 1 3 6 8 10 9 8 8 7 4 2 1 2 2 6 7 2 3 3 4 7 12 13 21 26 26 26 24 22 24 25 23 18 17 17 17 16 14 13 12 13 13 13 15 16 16 16 15 14 10 11 13 15 15 13 14 15 15 15 15 15 15 15 14 15 15 15 15 15 15 14 14 15 15 14 14 14 14 14 13 13 13 13 14 16 17 18
4 1 1 2 0 2 1 2 2 3 1 3 5 7 10 9 7 7 6 4 4 3 2 2 6 6 2 5 4 2 9 16 21 26 26 26 27 24 23 24 24 23 19 17 18 18 16 14 13 12 13 13 13 14 14 15 16 15 14 12 11 12 13 12 12 13 14 14 14 14 14 14 14 13 13 13 14 14 14 13 13 13 14 14 14 14 13 13 13 13 13 12 12 13 16 16 16
3 1 1 1 0 2 4 3 2 2 2 4 5 7 9 8 7 7 8 6 5 4 3 4 7 6 5 5 2 2 9 19 26 24 23 26 25 24 25 23 21 21 19 17 19 18 17 15 13 13 12 13 13 13 13 14 16 15 14 14 13 13 11 11 11 10 11 13 14 14 13 14 14 13 13 13 13 13 13 12 12 12 13 13 13 13 13 12 12 12 12 12 12 14 15 15 15
3 2 1 1 1 2 4 2 3 2 2 2 2 3 6 8 8 7 8 6 4 6 3 2 6 6 5 4 0 4 15 21 25 23 24 26 21 22 25 22 19 18 18 17 19 18 17 15 13 13 12 12 12 12 12 13 14 14 14 14 14 13 11 11 11 9 10 12 14 14 12 13 14 14 14 13 13 13 11 11 12 12 11 12 12 12 12 12 11 11 11 11 13 15 15 16 16
2 3 3 1 2 4 4 3 5 3 0 1 1 2 3 7 8 7 9 7 5 6 3 2 5 5 5 3 1 7 16 19 22 24 27 25 18 22 23 21 19 17 17 16 18 18 17 16 14 13 12 12 11 11 11 11 12 12 12 12 12 12 10 10 10 9 9 12 15 14 12 12 13 14 15 13 13 12 10 11 11 12 11 11 11 12 11 11 11 11 11 12 13 15 15 15 15
2 1 3 1 4 3 3 4 5 4 1 2 3 3 2 6 7 9 9 8 7 6 3 5 3 6 5 1 2 6 12 17 22 25 28 22 17 23 23 20 19 16 15 14 18 18 17 17 14 13 12 11 11 11 10 10 11 11 11 11 10 10 9 8 8 8 8 12 16 14 12 12 12 15 15 13 13 11 9 10 10 11 11 10 11 12 11 11 11 11 11 12 14 15 14 13 13
1 1 3 2 1 2 2 3 4 4 3 4 3 3 2 3 5 8 10 8 5 5 3 4 5 7 3 2 3 4 9 19 24 25 27 18 16 25 24 21 19 16 14 14 15 17 18 17 15 14 12 12 11 10 10 9 10 10 11 10 10 9 8 7 7 7 7 11 15 14 12 11 11 13 13 12 11 9 9 9 9 10 9 9 10 11 11 11 11 11 11 12 13 14 13 12 11
2 1 2 2 3 2 3 3 5 5 3 4 4 3 4 3 3 6 8 8 2 4 2 2 4 4 4 6 4 7 14 24 26 26 22 14 17 25 24 22 20 16 15 13 13 16 18 16 15 14 12 12 11 11 10 9 9 10 10 10 10 9 8 7 6 6 6 9 12 12 11 12 11 11 10 10 10 10 9 8 7 8 8 8 9 9 10 10 10 10 11 12 12 12 11 11 10
2 2 3 2 2 2 3 4 5 5 3 4 4 4 6 3 3 5 2 7 3 1 2 2 1 3 6 6 8 16 24 27 27 24 17 14 19 23 24 24 21 18 15 13 12 14 17 17 15 14 13 12 11 11 11 10 9 9 10 10 10 9 8 7 7 6 6 8 10 11 11 12 12 10 9 9 9 8 7 6 5 5 7 7 8 9 9 9 9 10 11 10 10 10 9 8 8
3 3 1 3 2 2 3 4 5 5 4 4 5 4 7 2 3 2 1 6 7 3 5 2 4 5 3 5 18 29 30 29 27 22 15 16 19 20 23 24 23 21 17 14 13 14 16 16 15 15 15 13 12 11 11 11 10 10 10 9 9 9 8 8 7 7 7 8 9 10 11 11 11 10 9 9 8 7 6 5 4 4 6 6 7 8 9 9 9 9 10 9 8 8 7 7 5
3 2 2 4 3 4 5 6 6 6 6 6 7 5 8 5 1 1 3 6 6 6 6 3 7 8 8 14 27 32 31 30 27 22 18 18 18 19 21 22 23 22 20 17 15 15 15 15 14 15 16 14 13 12 11 11 11 11 10 9 8 8 8 8 7 7 7 8 10 10 10 10 9 9 9 8 7 6 5 4 4 4 5 5 5 6 8 8 8 9 9 9 9 9 8 8 7
3 2 1 4 4 5 5 6 7 7 9 8 7 6 7 7 6 3 3 5 5 7 4 4 8 8 10 18 26 29 30 29 25 24 22 20 20 19 20 21 22 22 22 21 19 18 17 15 14 14 15 15 14 13 12 12 12 11 10 9 9 8 7 7 7 7 7 8 10 10 10 8 6 7 8 7 7 6 5 5 4 3 3 3 4 5 6 7 7 8 8 8 8 8 7 7 8
2 2 1 5 5 4 5 4 9 7 10 11 7 6 6 6 6 4 5 7 6 7 4 4 6 7 8 12 20 25 26 25 23 23 22 21 21 21 21 21 23 23 23 23 21 19 19 17 15 14 15 15 15 14 13 12 13 12 11 10 9 8 8 7 6 6 8 8 9 9 8 8 5 4 5 5 6 7 6 5 5 3 1 1 2 3 4 5 5 6 6 6 6 6 5 4 5
1 3 4 5 2 2 7 4 4 8 11 11 8 6 6 5 5 5 7 7 4 6 8 9 11 12 11 10 16 22 22 22 21 21 21 20 20 21 21 21 23 23 22 23 22 20 20 20 17 16 15 17 18 16 15 14 13 12 11 10 9 9 8 8 7 6 8 10 9 8 7 7 7 5 4 5 6 7 7 6 5 4 2 0 2 3 4 4 3 4 4 4 3 4 4 2 2
1 4 6 5 1 2 5 7 2 5 9 8 8 8 6 5 4 6 9 7 6 6 9 11 14 16 16 15 17 18 19 20 20 20 21 21 20 21 21 20 21 21 20 23 24 21 21 22 19 18 18 19 19 17 15 14 14 14 13 12 11 10 9 9 9 8 9 11 11 8 8 10 9 7 7 7 8 8 7 5 4 4 3 2 2 2 3 3 1 1 2 2 2 2 4 3 3
2 5 4 3 2 2 3 6 6 1 9 8 8 6 6 7 3 5 8 6 7 6 8 11 14 19 21 19 18 15 15 18 20 22 24 23 23 23 23 22 23 23 23 24 26 23 22 23 21 21 20 21 21 18 16 15 14 14 13 12 11 11 11 9 10 9 9 10 11 9 9 10 11 10 9 8 8 10 8 5 3 3 4 3 2 1 2 2 1 2 3 3 3 3 2 4 5
5 6 3 3 2 1 3 4 6 3 9 7 6 6 7 8 4 4 5 4 5 4 4 10 16 21 22 18 15 15 17 20 22 24 26 26 26 26 25 25 25 26 25 25 26 25 24 24 23 23 22 22 21 19 17 16 15 15 14 13 12 11 12 11 10 10 10 9 10 11 10 10 11 11 12 9 8 10 9 6 5 4 4 4 4 4 5 4 4 4 4 4 5 5 4 4 5
5 5 3 1 2 2 3 4 6 5 4 2 7 6 5 6 4 4 6 5 5 4 6 12 15 17 17 15 14 14 16 19 21 22 23 25 26 25 25 26 26 26 26 27 27 26 26 25 25 24 24 23 22 21 19 17 16 16 16 16 14 13 13 12 11 12 12 11 10 12 13 11 11 11 13 10 8 10 9 8 8 6 6 6 6 7 8 8 7 8 7 6 6 6 7 7 7
5 6 3 2 1 2 2 3 5 4 3 3 8 5 1 2 2 3 7 8 6 4 10 12 13 13 12 12 13 14 15 17 20 22 23 25 25 25 24 25 28 28 27 27 27 27 27 26 26 26 25 24 24 23 21 19 19 18 18 18 16 15 14 14 13 13 14 14 12 13 14 13 11 11 12 11 10 10 10 11 11 9 8 9 10 11 11 11 10 10 10 8 7 8 8 9 9
3 4 4 4 2 2 1 1 2 3 3 3 7 5 1 2 0 3 5 8 7 7 10 10 12 12 11 10 11 14 16 19 24 24 22 22 24 26 26 25 29 31 29 29 29 27 27 27 27 27 27 26 25 25 24 23 22 21 20 19 18 18 16 16 16 16 16 16 15 14 14 15 13 12 11 12 12 10 11 13 13 12 12 12 13 14 13 13 13 12 11 10 10 9 9 9 10
2 5 3 2 2 0 1 2 1 2 2 2 6 4 1 4 0 5 6 8 9 10 10 8 10 10 10 11 10 11 14 20 24 23 21 23 25 28 29 27 28 30 31 31 31 28 28 29 29 27 27 28 26 25 26 26 24 23 22 22 20 19 19 18 18 19 19 18 17 17 15 15 16 15 13 13 14 13 12 13 14 15 15 15 15 15 14 14 14 13 12 11 11 11 11 10 10
2 5 1 3 4 2 2 2 1 1 1 2 4 3 3 1 5 8 5 8 8 10 10 8 8 8 9 10 9 9 13 18 20 21 25 27 29 30 31 31 28 28 32 32 30 30 29 29 30 29 27 28 27 26 27 27 26 24 24 24 23 22 21 21 21 21 21 20 19 19 18 16 17 19 17 14 14 16 15 13 14 15 15 16 15 15 15 15 15 15 14 13 14 13 13 12 12
2 2 3 1 4 3 5 3 2 2 1 3 2 2 5 6 10 7 5 8 8 9 9 8 7 7 7 8 8 9 13 17 20 23 28 29 30 31 32 34 31 28 29 31 31 31 31 30 31 31 30 29 27 27 28 27 26 25 24 24 24 24 23 23 22 22 22 21 20 20 19 18 17 18 20 18 13 14 17 17 15 15 14 14 15 15 16 16 16 16 16 16 16 16 16 15 15
2 2 1 2 1 4 6 2 4 3 1 1 3 3 6 7 9 6 6 8 9 9 8 8 7 7 6 7 8 8 11 18 23 26 29 30 31 31 31 33 34 30 27 30 33 32 32 32 31 32 32 31 29 28 28 28 28 26 25 25 24 24 24 23 23 23 23 22 21 20 20 21 19 18 19 20 17 13 14 17 18 17 15 15 16 16 17 18 18 18 18 18 18 18 18 18 17
0 3 4 1 3 4 7 2 5 5 1 1 3 3 5 7 8 5 7 8 8 9 8 7 8 8 7 7 8 7 8 15 22 26 29 30 31 31 31 32 33 34 29 27 31 32 33 32 32 32 32 33 32 30 28 28 29 27 25 24 23 23 23 23 23 23 24 23 22 21 21 21 21 20 18 19 20 18 14 15 18 18 17 17 18 18 17 17 19 20 19 19 20 20 20 19 18
1 3 3 2 4 3 4 4 4 3 2 1 2 3 3 5 5 3 5 8 8 8 7 8 8 8 8 7 7 7 6 9 14 21 27 29 31 31 32 32 32 35 34 29 28 30 32 31 31 32 32 33 33 33 31 29 29 28 25 23 23 23 23 23 23 22 23 24 23 22 22 22 21 21 21 19 20 20 18 16 16 17 18 18 18 19 19 19 20 20 19 19 20 20 20 20 19
3 1 2 3 4 3 2 4 4 2 3 4 4 3 4 5 4 3 4 6 8 7 7 8 7 7 7 7 7 7 7 8 9 18 26 29 31 32 32 32 32 33 35 33 30 29 31 30 30 30 31 31 31 32 32 31 30 28 26 24 23 23 24 23 22 22 23 23 24 24 23 23 23 22 22 21 20 21 21 19 18 18 19 20 19 19 20 21 21 20 20 20 20 21 21 21 21
3 3 3 4 2 4 5 4 3 4 3 4 5 4 8 9 5 4 6 3 6 8 8 7 7 7 7 7 8 8 8 9 11 20 27 29 30 31 32 32 32 32 33 34 33 30 30 30 30 29 29 29 29 29 30 30 29 27 25 24 24 25 24 23 22 23 23 23 24 24 24 23 23 23 21 21 21 22 22 21 20 20 21 22 22 21 20 21 22 21 22 23 21 20 21 21 21
7 6 6 5 4 4 5 4 5 7 4 4 7 6 9 10 7 6 7 4 6 7 6 6 6 6 7 8 7 8 9 10 15 23 28 28 30 31 31 32 32 33 33 33 34 32 31 31 32 31 30 29 29 29 29 29 28 28 27 24 25 27 25 24 23 23 23 23 23 23 24 24 23 23 22 22 22 23 23 23 21 21 21 23 24 24 22 22 23 22 23 23 20 17 18 19 19
4 5 6 7 7 4 3 3 5 4 5 6 8 7 8 8 8 8 7 5 6 7 7 7 8 7 7 8 8 10 10 10 15 23 27 29 30 31 31 32 32 32 32 32 33 33 33 32 32 33 32 31 30 31 31 31 30 31 31 28 27 26 26 25 24 23 22 22 22 22 22 23 22 22 22 22 22 23 23 24 23 22 23 24 26 24 22 22 22 22 22 21 18 17 18 19 19
2 4 6 6 6 5 3 2 3 1 2 5 5 6 9 9 9 8 5 6 8 9 9 9 10 9 7 8 9 9 8 6 9 17 23 26 29 31 31 31 32 32 33 34 34 35 34 33 33 33 33 33 32 32 33 33 33 32 33 33 31 28 26 26 26 25 23 22 21 21 21 21 21 22 22 21 22 22 22 22 23 22 23 23 24 23 22 22 22 23 22 22 20 19 19 19 19
2 2 4 4 4 3 2 3 2 1 1 3 2 4 9 10 9 8 5 7 9 10 11 11 11 10 8 8 8 8 7 5 7 11 17 23 27 30 31 31 33 34 34 35 35 35 35 35 35 34 34 34 34 33 33 33 33 32 31 31 31 29 27 26 26 24 22 21 21 21 21 20 20 21 21 21 21 21 20 20 21 21 21 22 23 23 23 24 25 25 24 23 22 20 19 20 20
3 3 4 3 3 4 2 3 1 1 1 1 1 1 7 8 7 7 8 10 8 8 12 11 10 11 11 11 10 9 9 8 8 8 11 18 23 27 29 31 32 33 33 35 35 35 35 36 36 36 36 36 35 34 34 33 32 30 29 26 26 27 26 25 24 23 22 22 21 21 21 21 21 20 19 19 20 20 20 20 19 20 23 24 24 23 23 24 25 24 22 23 24 21 20 20 20
4 3 5 3 3 4 2 2 2 3 3 0 3 4 6 5 6 8 8 8 7 7 9 10 10 10 10 9 10 10 10 10 10 8 8 13 19 25 29 32 32 33 34 35 36 36 36 37 37 37 37 37 36 35 34 33 31 29 28 26 24 24 25 24 24 25 24 23 23 22 22 22 20 18 18 18 19 19 20 19 18 21 23 22 22 22 23 24 24 22 21 24 25 23 22 22 19
5 4 5 5 5 4 4 5 4 4 4 3 2 1 6 4 5 9 6 5 7 7 9 12 12 10 8 9 9 9 9 9 9 10 10 13 18 23 27 29 30 32 35 36 37 37 37 37 37 36 37 37 36 35 33 33 32 31 30 29 27 26 25 24 26 26 24 23 23 21 20 19 18 18 18 18 17 16 17 17 17 18 19 19 22 23 21 20 21 22 23 25 25 25 25 21 18
4 5 4 6 7 7 7 6 3 2 3 3 3 4 5 6 5 8 5 5 9 7 8 11 11 9 9 9 9 8 8 7 7 8 10 12 17 20 22 26 29 32 35 35 34 35 35 35 35 35 35 36 35 35 34 33 33 32 32 32 31 30 28 26 25 24 22 20 19 19 18 17 16 16 16 17 18 16 15 16 16 17 18 20 23 23 20 19 20 22 24 24 25 26 24 20 19
4 4 4 8 8 8 7 6 3 2 3 3 3 4 3 5 6 8 5 4 7 7 8 10 9 9 9 9 8 8 8 7 7 8 8 11 15 19 23 27 30 32 32 31 30 32 33 34 34 35 34 34 34 34 34 34 34 33 32 32 30 29 28 25 22 20 19 18 17 16 16 15 14 12 12 13 14 14 13 12 13 14 16 18 19 18 17 18 18 19 19 20 22 23 21 20 20
5 5 6 7 7 8 7 6 3 1 1 3 5 1 2 5 7 6 4 3 6 7 9 10 9 9 9 9 9 8 8 7 7 7 7 9 14 20 23 26 29 30 29 28 29 29 30 30 32 33 33 33 33 33 34 34 33 33 32 31 29 27 25 22 18 17 16 15 14 13 12 12 12 10 9 10 10 11 10 10 10 11 12 11 11 12 12 13 14 15 15 18 20 21 21 20 20
5 3 5 4 4 5 5 5 4 3 1 5 6 2 2 5 6 4 3 2 6 8 8 8 9 9 9 9 8 7 6 5 5 5 6 8 12 17 19 21 23 25 25 26 27 26 26 27 29 31 32 32 31 31 32 33 32 31 31 30 29 26 23 19 16 15 14 14 14 14 13 12 12 11 11 11 12 12 12 12 11 11 11 11 10 11 11 12 13 13 13 15 16 18 20 20 20
5 5 6 6 5 5 4 3 4 2 3 6 7 5 4 3 6 4 4 5 6 7 6 7 8 7 7 7 6 6 5 4 3 2 3 4 8 12 14 16 18 19 21 22 24 25 25 26 27 29 30 30 30 29 30 31 30 30 30 30 28 25 22 19 17 15 15 15 15 14 14 13 14 13 12 12 12 12 12 13 14 14 13 13 14 15 16 15 14 13 12 12 11 12 14 15 17
6 5 5 4 3 4 4 4 3 2 5 6 5 2 4 4 5 5 6 6 5 6 6 8 8 6 5 5 5 6 5 5 4 3 3 3 5 8 12 14 16 17 19 20 23 24 25 25 26 27 28 28 29 28 28 29 29 29 28 27 26 23 22 21 19 17 15 15 15 14 13 12 12 10 8 7 7 7 7 7 9 12 13 14 15 15 15 14 12 12 12 13 13 13 13 12 13
5 5 6 4 1 3 2 2 1 3 5 4 3 1 3 5 7 8 9 10 9 7 6 7 7 6 6 6 5 5 5 5 5 5 5 5 5 8 11 14 15 16 18 20 22 24 25 25 26 27 27 27 28 27 27 28 28 27 26 24 23 22 21 20 19 17 15 13 12 11 8 5 6 6 5 5 4 3 3 3 3 4 5 7 9 9 8 7 8 9 10 11 12 12 12 11 11
4 6 6 5 3 3 2 3 1 3 5 4 3 2 3 3 5 10 13 15 12 7 6 7 8 9 8 7 6 5 5 5 5 5 5 5 7 9 12 14 15 16 17 19 21 23 24 24 25 26 26 25 26 26 26 26 25 24 22 21 21 20 19 18 17 15 13 11 9 8 6 5 6 6 6 6 5 4 2 1 2 3 4 6 7 5 5 5 6 7 7 8 9 9 10 9 10
4 6 6 5 5 4 4 3 3 4 4 3 3 1 3 3 4 7 10 11 8 3 5 4 5 6 6 6 5 5 6 5 5 5 5 6 8 11 12 13 14 15 16 18 19 21 22 23 24 25 25 24 24 24 25 25 23 21 21 20 20 20 18 16 15 13 12 10 9 10 10 9 8 8 7 6 5 4 3 1 2 2 3 4 5 6 5 5 5 6 7 8 8 9 9 9 10
3 3 5 4 5 4 3 3 5 5 1 1 2 3 5 4 6 8 6 6 4 1 1 2 3 3 4 5 5 5 5 4 4 5 4 5 7 11 12 13 13 14 16 17 19 21 22 23 24 24 24 24 23 23 24 24 22 21 21 20 20 20 18 17 16 15 13 12 11 13 13 11 9 8 6 6 5 4 4 4 4 4 4 4 4 4 4 4 5 6 7 7 8 8 9 9 10
1 3 4 5 4 6 4 1 1 3 1 3 2 3 5 3 6 9 5 6 5 3 4 3 4 4 4 5 5 5 5 5 5 5 5 5 7 9 11 13 14 15 16 17 19 21 22 24 24 24 24 23 23 23 24 25 24 22 21 19 18 18 17 17 17 16 15 14 13 13 12 10 9 8 7 7 6 5 4 3 3 3 3 3 4 4 4 4 6 6 7 7 7 8 8 9 9
4 4 6 4 3 4 3 2 1 3 2 4 1 5 5 2 3 6 5 3 7 7 6 6 6 5 6 6 6 6 6 5 4 5 5 6 8 10 10 12 13 15 15 15 18 20 22 23 24 24 24 24 23 23 23 23 22 21 20 19 18 17 18 18 17 16 15 14 13 12 11 9 8 6 5 4 4 3 3 3 3 3 2 1 1 3 3 4 5 5 6 6 7 8 9 9 9
3 4 3 4 3 1 2 3 1 1 3 4 3 4 4 3 5 5 4 5 8 9 8 7 7 7 6 6 6 6 5 5 5 5 5 5 9 11 12 13 13 14 14 14 17 20 21 22 22 23 23 23 22 21 20 20 20 20 21 20 19 19 18 18 16 15 14 13 12 11 10 9 8 7 7 8 8 8 8 8 8 7 7 6 5 4 3 3 3 4 5 6 7 8 10 10 10
1 1 1 2 2 4 3 4 4 3 3 4 3 2 3 5 6 5 7 9 10 10 8 8 9 8 7 7 7 6 6 6 6 6 5 5 9 12 14 15 15 15 15 16 18 21 22 22 22 23 23 22 22 22 22 22 21 21 21 20 20 19 18 17 15 13 13 13 12 12 11 11 11 11 11 12 12 12 12 12 12 12 11 11 9 8 7 7 6 7 7 8 8 9 10 11 11
2 2 3 2 1 2 1 1 3 4 3 4 3 3 5 6 5 7 11 11 10 9 7 8 9 8 8 8 7 7 7 6 6 6 6 6 10 13 15 16 17 17 17 17 19 21 22 23 23 24 24 23 23 22 23 23 22 21 21 20 19 18 17 16 14 14 14 14 14 13 14 14 15 15 15 16 16 16 15 14 14 14 13 12 11 10 9 10 10 10 10 10 11 11 12 13 14
6 5 7 7 4 4 3 3 2 2 3 4 4 4 7 6 4 6 8 8 7 7 8 8 8 9 9 7 8 8 7 7 6 6 6 7 11 14 16 17 18 19 18 19 20 21 22 23 22 23 23 23 23 22 23 22 22 22 21 20 19 18 18 17 16 17 17 17 16 16 16 16 18 18 17 17 17 17 16 15 15 14 13 12 12 11 11 12 12 12 12 12 12 13 14 15 16
Wind_Direction
320 321 324 344 342 340 333 62 53 318 81 13 254 127 229 163 125 115 84 73 72 24 81 94 77 71 83 113 129 107 53 319 208 155 174 156 151 154 158 156 151 150 149 143 139 133 127 119 111 105 99 107 115 115 112 108 104 100 95 95 96 104 105 96 93 89 87 86 86 86 87 87 86 86 85 83 83 83 81 79 79 79 78 76 76 76 76 76 76 77 77 79 81 84 91 95 93
324 324 337 351 338 348 307 104 73 323 55 357 285 154 189 74 75 114 106 89 108 139 102 81 68 64 87 127 133 94 44 1 78 134 104 127 140 148 154 153 150 153 150 144 140 132 127 121 112 105 102 107 116 120 115 108 106 103 98 98 99 103 107 102 96 92 90 90 89 89 90 91 90 88 86 83 82 82 80 79 80 80 79 78 77 77 77 77 77 77 79 81 82 86 94 97 95
331 335 354 2 337 34 326 36 97 316 71 184 269 279 117 80 93 121 114 108 127 117 87 69 60 59 73 87 62 61 65 6 58 80 107 127 134 142 150 152 150 153 149 145 140 133 128 122 114 107 107 110 118 120 115 110 109 108 106 106 102 105 110 106 99 96 94 93 92 92 94 94 93 88 85 82 82 81 79 78 80 80 79 79 78 78 78 77 77 78 79 83 84 88 92 96 96
339 353 358 15 18 22 38 46 177 145 73 190 206 293 79 110 122 115 115 121 128 103 85 70 51 14 75 87 83 69 89 55 73 83 114 133 140 144 148 149 148 151 148 146 139 134 130 124 118 112 110 114 121 120 114 111 110 108 108 107 102 107 112 107 103 101 97 96 95 95 94 93 92 88 86 85 85 84 81 82 84 82 80 79 79 79 79 79 79 79 80 83 88 92 93 97 97
341 7 352 37 67 0 72 58 195 100 225 194 144 234 137 125 122 115 116 113 114 104 109 106 73 326 67 84 119 97 106 104 109 113 113 132 142 144 148 148 146 148 146 144 140 137 131 126 121 116 114 118 124 122 117 112 110 109 106 105 102 108 112 108 105 103 99 99 97 97 95 94 92 89 88 88 88 86 83 83 85 85 83 82 82 82 82 83 82 82 82 85 89 94 99 100 98
347 10 357 74 144 230 107 278 323 5 246 176 126 178 154 132 124 118 106 86 61 88 102 102 116 89 71 31 57 89 182 139 130 136 131 137 144 145 147 144 141 146 146 144 145 140 132 130 123 119 117 118 124 124 123 117 111 110 109 108 103 109 114 108 106 105 102 101 100 99 99 97 94 92 91 90 89 86 85 83 83 85 85 84 86 86 85 85 86 86 85 88 89 95 106 104 99
7 9 16 57 320 339 107 175 234 268 269 142 129 156 152 139 132 116 109 92 28 39 64 92 123 101 82 114 73 22 76 149 143 146 146 142 145 146 144 141 143 150 151 148 148 142 135 133 125 122 120 119 121 123 127 124 116 112 112 109 101 108 114 110 107 106 104 104 103 102 101 100 99 99 98 95 89 86 88 87 85 83 82 82 83 84 85 85 86 88 88 90 90 100 113 108 100
27 16 58 77 344 358 119 191 228 206 89 72 127 150 149 147 140 123 127 118 90 68 40 72 101 93 38 79 109 11 79 134 142 145 147 144 147 146 143 145 148 154 155 150 149 145 138 135 129 125 124 122 121 123 128 127 122 116 113 109 101 107 113 111 111 109 106 106 106 105 104 104 101 99 98 92 87 87 90 90 87 84 83 82 83 84 87 87 87 88 89 91 93 104 116 112 101
53 76 16 85 244 324 297 263 232 210 182 100 118 149 149 147 139 124 122 109 133 141 152 160 87 102 123 65 101 37 88 129 139 142 145 146 149 146 145 150 154 156 155 152 151 147 142 140 132 129 129 123 123 125 127 128 127 121 114 111 105 107 112 112 112 112 111 110 109 106 106 107 102 99 98 92 89 90 91 91 89 89 89 88 88 88 89 90 90 90 90 92 96 108 117 115 105
47 97 63 95 89 319 303 283 207 212 230 152 129 153 152 142 131 122 119 124 141 126 177 162 89 117 139 91 103 119 121 137 141 143 149 150 150 148 149 155 159 158 154 153 154 151 144 142 136 133 132 126 126 127 127 129 131 126 122 122 119 116 116 116 114 114 115 116 115 110 110 109 104 101 101 100 98 97 95 93 92 94 95 93 93 94 93 93 92 92 92 93 98 110 116 113 109
27 340 104 90 51 244 262 255 196 203 246 150 103 160 158 141 122 117 116 118 126 121 172 106 100 132 111 99 210 145 140 144 145 145 151 153 150 151 153 156 162 160 154 155 157 155 147 145 143 137 134 132 129 129 129 130 133 134 133 133 132 126 123 120 115 113 109 119 122 112 111 114 112 109 107 108 104 105 105 97 92 93 94 94 96 97 96 95 94 94 94 92 97 107 112 110 110
62 315 71 127 193 212 217 169 191 192 255 102 130 259 154 126 114 123 121 119 128 119 170 144 127 137 96 95 223 151 146 151 152 148 153 155 148 151 153 153 159 161 154 155 160 158 152 151 150 143 137 135 133 133 132 129 133 138 138 138 139 135 130 123 114 112 99 116 128 118 121 125 123 123 117 117 115 117 113 99 96 93 92 93 94 95 95 95 94 96 96 94 97 104 107 107 111
122 240 79 196 197 184 183 155 187 154 146 212 185 227 114 105 124 143 130 127 141 126 205 211 134 96 98 102 139 152 155 158 155 153 156 153 147 151 153 150 153 158 153 155 163 163 159 157 155 149 142 140 138 138 136 134 134 136 140 140 141 139 136 131 121 119 99 114 134 133 137 138 132 131 127 128 129 127 115 106 106 99 94 95 97 97 97 97 96 99 99 98 101 103 103 104 109
152 192 108 235 248 171 188 149 184 144 185 234 192 201 116 94 139 144 128 123 150 159 201 215 117 91 107 111 130 182 174 164 158 159 160 154 151 151 152 153 152 154 152 153 163 170 167 162 160 155 149 146 145 145 143 142 141 138 140 140 141 140 137 136 127 125 104 117 141 145 142 144 138 135 137 138 137 131 126 123 110 97 90 92 100 101 99 98 100 102 102 102 103 104 104 105 108
176 217 96 242 317 311 222 170 175 149 184 212 185 180 107 63 105 109 123 130 174 216 147 82 106 102 155 160 185 196 170 165 162 163 165 159 154 152 151 151 153 156 155 155 160 173 174 167 165 162 159 156 152 152 151 150 149 145 141 139 139 137 135 133 128 128 115 120 144 152 146 148 147 142 143 141 137 135 134 131 108 89 80 87 100 100 98 100 105 107 107 106 105 104 103 105 110
144 110 59 283 281 280 241 170 140 135 200 203 182 149 103 26 50 89 142 140 129 293 62 57 32 99 158 180 178 165 161 162 163 167 168 156 149 150 152 148 150 154 159 166 163 172 176 173 171 170 167 165 163 158 157 158 157 156 148 142 138 134 131 129 127 127 125 124 140 156 156 154 154 154 153 147 142 140 138 132 110 85 80 90 101 102 100 101 106 110 113 112 107 104 100 102 111
67 85 67 287 266 235 239 178 160 157 194 199 191 154 124 60 14 82 8 105 118 77 59 31 10 68 124 164 153 152 156 161 164 169 165 155 146 142 150 153 153 154 160 170 172 174 175 177 177 177 175 171 173 168 166 165 163 166 157 148 143 138 135 133 132 126 126 128 137 154 163 161 158 158 159 156 153 150 148 141 119 97 89 92 98 100 100 99 102 109 113 111 106 101 95 88 98
72 104 166 248 246 212 224 193 183 153 155 187 194 169 139 144 116 127 64 76 105 89 65 53 43 53 84 122 141 147 152 159 167 170 161 157 155 145 148 156 160 162 165 168 178 183 179 180 179 180 181 174 175 175 175 175 170 172 167 160 154 149 147 143 142 136 128 133 139 145 154 161 162 161 163 165 167 164 164 162 141 114 97 89 93 97 99 101 100 103 106 106 104 99 91 74 66
137 155 185 227 223 226 231 173 160 145 155 174 185 169 151 163 157 136 128 129 129 107 65 63 76 70 89 117 137 145 152 160 169 172 166 163 166 161 154 159 165 169 174 174 179 188 188 186 180 181 185 177 177 179 177 181 179 178 178 174 168 165 164 159 156 150 142 137 140 139 136 140 155 170 170 173 182 187 189 182 174 147 116 94 91 101 105 105 103 103 104 103 102 100 94 77 64
178 166 227 242 241 282 313 155 163 162 152 155 179 177 161 177 152 134 151 151 157 150 147 113 120 133 125 131 142 148 156 162 168 173 175 174 173 173 167 167 170 173 180 180 179 186 191 192 187 184 188 181 183 187 180 181 184 184 185 184 183 180 179 176 173 167 158 145 140 140 136 137 155 190 184 185 200 202 208 207 203 198 172 89 69 103 117 110 107 107 107 107 101 101 100 88 80
195 170 203 253 269 301 318 317 179 156 147 154 167 144 148 177 145 148 145 143 202 202 183 172 165 160 150 153 154 156 161 164 168 174 181 182 181 182 179 177 178 179 182 185 185 187 191 194 193 188 190 187 188 194 189 187 188 188 189 188 188 188 193 192 186 183 171 153 143 144 155 169 179 210 222 223 229 217 217 224 226 229 235 271 88 119 132 118 115 118 117 122 114 116 126 120 117
231 232 211 256 314 170 290 320 324 145 137 140 145 140 153 154 142 162 145 153 218 215 200 183 166 162 160 162 161 163 166 169 173 176 182 186 187 188 187 185 183 184 186 190 191 192 193 194 195 192 191 191 194 199 195 191 192 193 190 187 187 186 191 195 190 194 189 165 155 160 169 183 196 216 232 240 246 235 227 231 239 234 212 164 123 137 155 137 129 162 160 164 171 154 153 167 196
206 269 224 281 336 164 283 327 320 125 130 142 154 159 144 125 159 178 149 178 213 210 210 184 166 164 160 157 160 166 172 178 181 181 183 185 189 191 190 190 188 189 191 194 193 193 197 196 196 195 192 193 197 202 197 190 193 197 193 190 192 188 183 188 191 191 199 183 174 182 175 184 210 226 229 240 248 237 228 224 236 233 203 186 182 246 233 200 215 246 236 224 238 245 196 188 204
190 266 285 327 25 162 292 331 325 76 133 168 149 137 141 142 166 169 158 200 206 210 195 156 155 156 152 154 164 173 177 183 188 187 186 187 190 192 192 193 192 193 194 194 193 195 199 199 199 198 195 194 197 199 197 192 192 194 195 197 199 197 188 190 196 189 197 202 189 193 188 195 224 232 226 235 246 234 227 228 239 244 221 211 219 257 267 254 261 271 264 249 250 262 265 243 227
199 239 265 336 48 302 316 7 353 47 102 146 116 122 158 163 154 155 182 194 193 176 114 121 136 144 152 162 171 175 180 187 191 190 190 192 193 193 194 196 195 193 195 195 194 196 199 200 201 201 199 196 197 196 197 197 194 193 196 201 203 203 198 195 201 195 198 210 201 200 199 204 225 231 228 233 236 230 226 232 242 242 235 231 225 242 258 257 260 270 272 262 259 263 266 265 260
219 211 190 131 140 270 324 12 351 16 13 86 113 117 120 186 166 176 194 184 189 144 113 121 132 144 162 169 174 176 181 187 190 192 193 194 196 197 198 197 196 195 198 198 196 198 199 200 203 204 203 201 199 197 198 200 197 197 199 202 204 204 204 201 202 202 205 213 212 209 206 207 222 231 233 233 233 230 223 229 240 236 234 235 232 240 251 254 256 263 267 265 265 267 267 268 268
209 172 140 124 154 237 343 353 313 0 7 75 116 136 116 322 198 209 212 176 164 126 124 139 141 154 169 170 180 181 182 188 189 190 191 193 196 202 204 199 195 197 201 199 199 201 199 199 203 205 206 205 203 201 201 201 201 202 201 202 204 205 206 205 205 207 211 215 217 219 215 210 216 225 230 233 238 238 226 226 232 230 228 231 236 243 248 252 254 259 265 265 267 269 270 270 270
158 132 101 41 72 353 63 103 265 0 33 88 106 117 355 4 132 220 209 169 155 136 143 158 153 164 171 172 182 183 189 192 189 188 189 194 197 201 208 205 197 197 200 199 200 201 199 199 202 203 205 205 205 205 203 203 205 205 204 204 205 206 207 208 209 210 213 217 219 222 224 219 215 217 224 230 236 242 238 231 230 231 230 231 236 242 246 251 255 260 263 263 265 268 269 265 265
168 137 136 317 15 346 243 144 233 128 134 254 109 95 305 273 228 235 191 162 154 141 155 168 169 173 172 175 178 184 193 190 188 192 195 197 198 200 205 207 203 198 197 199 199 200 202 202 201 202 202 202 205 207 206 206 208 208 207 207 207 209 209 210 212 213 216 219 222 224 227 229 223 218 220 226 231 237 242 240 237 239 242 241 240 242 245 249 253 256 257 256 259 261 263 262 259
214 148 133 295 10 302 247 185 168 136 165 292 124 176 265 240 239 242 174 159 147 146 170 177 183 185 179 181 178 187 191 186 190 197 199 200 200 201 203 206 207 203 199 199 201 202 204 203 202 202 203 204 206 208 209 209 210 211 211 211 210 212 212 214 216 218 220 221 225 229 228 232 233 224 220 223 227 233 238 241 245 248 252 252 246 243 245 249 252 254 253 254 258 261 264 263 257
213 223 175 125 117 263 275 206 156 158 232 6 120 209 260 255 256 241 184 169 155 165 187 185 189 195 192 190 184 191 191 189 194 198 201 202 202 203 204 206 207 208 205 201 203 203 203 204 202 203 205 205 205 206 209 210 211 212 213 214 213 214 216 219 220 221 223 225 227 229 228 229 235 235 226 223 226 231 233 236 245 251 254 257 255 251 248 250 254 255 256 257 259 263 265 264 261
179 197 254 300 159 258 305 269 173 166 217 49 143 219 264 262 265 238 178 170 169 179 194 192 193 198 198 199 192 194 197 195 196 199 202 203 203 204 205 206 206 208 209 203 201 201 203 205 205 205 206 206 205 205 205 206 208 210 212 214 216 217 219 221 223 224 225 227 228 228 229 229 233 238 236 230 228 230 233 234 242 248 250 254 256 255 255 258 260 259 259 259 261 265 267 267 267
330 155 228 231 175 244 310 285 242 174 153 196 204 220 260 265 272 248 169 164 172 182 195 196 196 201 198 198 197 194 197 199 199 201 202 203 204 206 206 207 206 207 210 207 201 199 202 204 206 208 208 207 208 207 207 206 206 209 212 215 217 220 223 224 225 226 226 228 230 230 230 230 232 235 237 239 235 234 235 237 239 241 246 253 253 254 259 263 262 260 259 261 264 267 268 270 272
299 137 216 238 188 182 231 282 282 167 152 209 220 227 245 273 288 257 217 167 165 183 201 205 204 208 204 196 197 195 195 200 206 204 202 202 204 206 208 208 208 208 209 210 207 204 203 204 206 209 209 208 209 210 210 211 212 212 214 217 220 223 226 228 228 228 229 230 231 232 233 233 233 232 234 240 242 240 238 239 240 240 245 251 252 252 254 256 257 259 263 265 267 267 267 270 273
198 181 202 261 238 188 201 244 233 168 172 212 199 231 249 265 282 263 258 203 174 200 208 213 214 207 207 201 199 200 200 207 212 206 204 203 203 205 208 208 208 208 209 210 211 209 207 206 206 207 209 209 209 210 210 213 215 214 215 218 222 224 226 229 231 231 232 232 232 234 236 237 236 236 237 240 241 241 242 243 244 245 246 249 253 253 252 253 254 257 263 267 269 267 266 269 272
182 182 186 211 224 231 213 237 239 172 162 219 201 221 242 250 262 260 261 230 197 223 226 225 227 214 205 203 206 206 206 216 215 209 207 206 204 204 206 207 207 208 209 209 209 210 209 207 207 207 209 210 209 209 208 209 210 209 211 215 218 221 223 227 230 232 233 232 233 235 238 240 242 241 241 242 240 241 244 246 248 251 251 248 248 250 253 258 258 259 263 266 269 269 268 269 269
197 185 197 202 202 243 251 261 276 163 152 227 215 224 245 246 247 244 241 218 213 234 233 228 228 220 209 204 210 209 211 223 215 210 210 207 206 205 205 205 204 205 206 207 208 208 209 207 207 207 208 209 208 207 207 207 206 206 210 213 215 217 220 224 227 230 232 233 233 235 238 242 245 245 246 246 243 243 245 246 248 253 254 250 246 248 256 263 264 264 264 263 264 266 269 270 266
230 183 203 217 206 228 267 262 280 124 154 248 234 233 252 249 245 246 221 198 218 220 212 222 224 221 219 209 212 214 217 225 208 209 209 206 204 202 202 201 200 201 203 205 208 208 209 208 207 207 206 206 208 209 208 209 209 209 210 213 216 218 220 223 226 229 231 232 234 235 238 242 245 248 250 249 248 247 247 247 248 252 255 253 249 250 258 263 263 262 260 258 258 260 266 270 264
208 146 171 218 222 206 303 313 305 39 156 269 279 228 251 257 252 252 225 209 223 214 205 212 213 215 222 215 216 220 222 219 201 204 205 202 200 197 198 199 200 203 203 205 207 208 207 208 209 208 206 205 207 210 211 212 214 214 213 214 215 216 221 225 227 230 230 231 234 235 237 241 246 249 250 251 251 250 250 249 250 253 256 255 252 255 260 262 259 256 253 254 256 256 262 267 261
213 130 132 218 226 170 254 286 286 4 155 211 31 279 266 266 267 263 237 225 228 214 212 215 208 209 214 211 211 210 209 210 206 206 200 195 194 193 194 197 200 202 203 203 204 204 205 207 208 208 207 207 208 210 212 214 215 216 216 217 216 216 221 226 228 230 232 233 234 234 236 240 245 248 248 250 251 252 252 251 253 257 254 250 251 256 262 263 259 254 253 255 254 251 256 263 261
249 176 154 208 211 183 201 175 139 4 342 2 64 351 296 257 254 258 244 239 242 219 213 224 226 221 218 217 217 211 205 201 197 200 198 189 188 190 193 197 199 200 200 202 203 203 204 205 207 208 208 208 208 210 212 213 213 212 212 213 216 218 223 225 226 227 228 230 231 231 233 236 239 243 247 251 253 254 254 251 255 258 255 251 254 260 264 264 263 262 264 263 257 252 255 260 261
261 230 192 185 172 157 125 119 96 42 330 282 120 4 293 288 264 252 255 266 254 227 206 221 230 228 227 227 223 216 213 209 199 197 193 187 187 190 194 197 199 200 203 204 205 205 205 205 205 206 207 207 208 209 209 209 209 207 205 205 208 211 212 215 217 218 218 220 224 225 226 229 232 238 246 252 254 256 255 254 258 261 260 257 256 255 257 263 269 273 273 266 259 257 254 252 257
231 247 192 147 131 120 130 141 113 109 242 281 113 160 258 314 305 261 262 258 254 245 222 227 228 224 225 224 221 212 208 210 205 201 192 188 190 189 194 199 200 204 207 207 206 206 206 206 205 206 207 208 208 208 207 207 207 206 206 206 206 205 204 208 212 214 214 215 217 221 226 232 238 242 245 249 253 256 257 259 263 264 265 265 260 255 256 267 273 274 271 265 261 258 252 248 257
218 243 137 123 127 136 154 156 142 183 215 323 24 131 220 294 280 269 274 262 278 279 245 242 234 226 229 224 220 210 204 199 193 197 194 192 194 194 198 202 204 207 209 207 207 208 209 209 208 208 209 210 210 209 207 206 207 207 206 205 205 205 207 208 210 211 213 216 219 224 229 234 239 241 239 241 243 246 249 252 257 260 265 270 268 262 263 269 273 273 271 269 267 263 259 257 262
234 224 138 136 146 149 151 141 133 105 104 303 309 104 196 269 274 295 314 283 289 279 249 247 237 229 228 223 220 216 214 206 193 196 199 197 198 201 206 208 210 212 212 210 209 209 210 210 209 209 209 210 210 209 208 208 208 208 205 204 205 207 209 209 210 211 213 215 216 217 217 215 217 219 222 227 231 237 244 248 250 251 254 262 265 262 263 267 274 280 281 276 270 267 264 261 263
218 165 102 83 83 99 109 123 122 65 76 246 259 207 183 273 282 299 325 273 259 258 252 249 240 235 232 228 226 216 206 192 185 194 204 209 206 206 209 211 212 213 213 213 210 208 207 207 207 206 207 207 207 207 207 207 208 208 207 207 207 208 208 208 208 208 207 208 209 208 206 203 204 208 213 220 227 236 246 252 255 256 254 258 265 268 272 276 277 281 285 282 275 272 268 261 262
137 95 67 49 33 40 48 65 96 88 274 251 243 209 173 270 282 247 226 229 222 228 251 262 257 249 231 223 212 192 177 178 195 221 228 220 209 205 203 202 203 205 207 208 206 204 203 203 203 203 203 204 203 203 204 204 205 207 208 208 209 208 204 199 196 194 195 198 200 203 205 211 217 221 225 229 237 247 254 255 255 255 258 262 266 268 270 273 276 280 288 290 285 285 283 279 277
111 95 95 82 1 15 22 2 56 159 254 263 269 236 173 224 265 248 247 261 235 209 223 244 252 253 229 206 195 187 181 188 204 227 226 186 176 186 189 189 191 193 197 199 200 200 199 199 199 198 199 200 201 201 201 202 203 205 207 208 207 204 198 195 192 191 190 191 196 203 210 221 225 222 225 239 259 276 282 278 262 254 256 260 265 269 273 276 278 280 282 284 286 290 296 300 300
97 115 123 124 6 28 21 293 277 220 246 263 300 303 203 232 255 263 269 274 262 227 213 216 212 218 220 209 203 199 190 188 194 202 204 191 181 184 185 185 187 189 192 195 195 196 197 197 197 195 195 196 198 199 199 200 202 203 204 204 203 201 198 198 198 197 198 198 200 202 200 197 192 190 207 229 248 265 296 344 345 302 285 286 286 283 284 291 294 292 289 287 289 289 290 296 302
128 147 142 145 138 92 204 247 265 252 260 275 296 278 257 274 265 253 252 257 259 238 224 220 197 193 201 201 199 198 199 199 199 198 194 199 204 201 196 193 193 194 195 195 195 194 193 193 193 192 190 191 194 196 196 196 196 198 200 199 198 196 195 196 198 198 199 197 192 186 172 154 163 178 197 207 206 206 217 336 357 347 342 341 341 330 299 286 290 298 299 297 296 293 291 295 300
171 167 140 153 164 148 187 208 197 224 263 286 296 262 200 206 256 246 240 262 282 242 220 220 192 195 183 177 185 190 209 216 203 197 198 208 208 201 198 196 196 196 193 192 191 191 189 186 187 186 183 185 188 190 190 188 187 187 188 189 189 188 186 185 187 186 185 183 174 168 166 166 170 170 170 172 174 183 194 223 272 298 312 323 339 346 338 315 298 293 292 294 297 295 289 286 286
215 150 118 165 184 147 150 181 178 173 171 257 251 239 211 206 275 275 256 274 314 353 254 135 154 186 150 160 192 193 207 207 177 173 182 196 195 189 186 185 187 187 186 186 185 184 183 180 180 181 178 180 182 183 183 182 180 177 178 181 183 183 182 182 183 182 182 181 172 166 167 169 175 177 178 186 194 207 224 242 258 268 276 285 299 314 328 327 311 301 299 301 303 303 300 299 299
177 131 165 204 167 119 121 196 163 112 160 244 203 245 282 314 291 291 284 261 276 301 281 222 196 207 172 187 210 204 207 195 168 160 153 146 150 160 167 169 173 175 176 180 180 180 179 176 174 174 173 174 176 177 178 180 180 178 177 176 175 178 181 184 186 183 182 182 179 178 181 184 192 198 202 210 219 227 236 246 257 262 264 269 274 278 285 295 305 316 330 337 336 331 330 331 331
130 162 199 186 110 92 114 162 10 61 212 265 219 217 272 307 265 314 347 265 264 266 248 239 233 220 205 213 216 207 202 183 162 146 136 131 130 134 144 152 159 165 167 170 174 177 177 175 174 172 170 171 173 175 178 181 181 178 175 171 170 176 179 180 181 181 182 184 183 186 188 186 185 184 177 169 161 151 129 106 94 87 78 60 267 266 272 284 306 328 344 348 342 341 343 342 333
147 181 180 126 139 197 144 164 197 184 221 273 284 237 247 212 222 298 312 233 244 246 231 229 235 218 209 219 212 203 187 160 153 144 137 133 130 131 136 141 146 151 153 153 162 170 172 172 173 171 168 169 171 173 173 172 171 169 168 169 173 176 176 176 178 179 179 178 175 173 170 162 149 139 130 121 116 112 105 99 96 91 84 80 77 70 54 29 15 8 6 1 352 350 350 346 340
15 66 92 87 150 177 173 176 164 157 209 250 284 290 256 229 215 227 237 229 230 233 222 220 227 216 207 206 192 188 180 169 169 162 154 141 135 136 139 143 145 145 145 145 151 158 161 162 163 162 161 161 164 166 166 166 167 168 169 171 173 174 174 175 173 171 166 159 156 151 145 138 129 123 118 114 110 106 103 100 95 90 85 81 76 70 64 55 49 38 29 23 15 8 4 0 358
139 135 168 174 104 129 154 214 145 135 172 210 240 269 262 251 214 203 229 238 229 223 216 219 224 214 210 203 184 181 179 179 175 160 154 141 135 136 139 144 147 145 144 144 147 150 152 154 156 156 157 158 159 162 165 166 167 167 167 165 166 166 167 165 160 156 151 144 141 137 132 127 122 118 114 111 108 103 101 97 93 89 83 81 76 70 65 58 54 49 40 33 24 17 12 7 4
175 173 183 183 164 128 149 233 219 152 175 182 192 247 265 257 212 205 233 247 243 229 213 219 226 214 212 202 184 183 178 178 174 155 149 143 139 140 140 143 146 146 145 144 145 148 149 151 153 155 157 157 158 160 161 161 161 162 161 158 157 157 156 154 148 144 139 135 132 128 125 123 118 113 110 108 105 103 100 94 91 87 83 81 74 68 62 54 50 45 38 32 23 16 11 4 1